�������l�o���
Date,Time,MP-1(��Sv/h),MP-2(��Sv/h),MP-3(��Sv/h),MP-4(��Sv/h),MP-5(��Sv/h),MP-6(��Sv/h),MP-7(��Sv/h),MP-8(��Sv/h),����,����(m/s),���J
2022/11/19,00:00,0.590,0.854,0.535,1.082,0.752,0.339,0.598,0.564,�쐼,6.6,�L
2022/11/19,00:10,0.589,0.855,0.535,1.081,0.755,0.340,0.598,0.566,�쐼,7.9,��
2022/11/19,00:20,0.590,0.853,0.535,1.081,0.751,0.340,0.600,0.564,�쐼,7.5,��
2022/11/19,00:30,0.588,0.852,0.536,1.082,0.753,0.340,0.600,0.565,�쐼,7.7,��
2022/11/19,00:40,0.589,0.854,0.535,1.080,0.753,0.339,0.600,0.565,�쐼,7.1,��
2022/11/19,00:50,0.589,0.853,0.535,1.079,0.752,0.339,0.599,0.566,�쐼,5.6,��
2022/11/19,01:00,0.589,0.854,0.534,1.079,0.752,0.339,0.598,0.566,�쐼,3.6,��
2022/11/19,01:10,0.590,0.853,0.536,1.080,0.752,0.339,0.601,0.565,�쐼,3.3,�L
2022/11/19,01:20,0.590,0.854,0.536,1.079,0.752,0.340,0.599,0.565,�쐼,2.3,�L
2022/11/19,01:30,0.589,0.854,0.536,1.079,0.752,0.339,0.599,0.566,���쐼,1.4,�L
2022/11/19,01:40,0.591,0.853,0.534,1.078,0.753,0.339,0.599,0.565,-,CALM,�L
2022/11/19,01:50,0.591,0.853,0.536,1.081,0.753,0.340,0.600,0.564,�k,1.4,��
2022/11/19,02:00,0.589,0.853,0.535,1.079,0.754,0.340,0.600,0.564,�k�k��,2.6,��
2022/11/19,02:10,0.589,0.853,0.535,1.080,0.751,0.338,0.599,0.566,�k��,2.6,�L
2022/11/19,02:20,0.589,0.853,0.538,1.080,0.752,0.339,0.598,0.565,�k��,4.6,��
2022/11/19,02:30,0.588,0.852,0.537,1.079,0.752,0.339,0.599,0.565,���k��,5.9,��
2022/11/19,02:40,0.586,0.854,0.535,1.079,0.753,0.339,0.599,0.566,���k��,6.5,��
2022/11/19,02:50,0.586,0.851,0.535,1.079,0.753,0.338,0.598,0.564,���k��,6.5,��
2022/11/19,03:00,0.587,0.851,0.535,1.082,0.751,0.339,0.599,0.565,�k��,6.5,��
2022/11/19,03:10,0.587,0.851,0.535,1.080,0.752,0.339,0.599,0.566,���k��,5.9,��
2022/11/19,03:20,0.588,0.851,0.535,1.079,0.753,0.339,0.599,0.563,���k��,5.3,��
2022/11/19,03:30,0.585,0.851,0.535,1.080,0.751,0.339,0.598,0.563,���k��,5.1,��
2022/11/19,03:40,0.587,0.849,0.535,1.080,0.752,0.339,0.599,0.566,���k��,3.4,��
2022/11/19,03:50,0.587,0.849,0.534,1.078,0.753,0.338,0.598,0.563,�k��,2.3,��
2022/11/19,04:00,0.585,0.851,0.534,1.079,0.752,0.339,0.599,0.565,�k�k��,1.5,��
2022/11/19,04:10,0.587,0.852,0.534,1.081,0.750,0.339,0.599,0.564,�k,1.4,��
2022/11/19,04:20,0.588,0.850,0.533,1.080,0.753,0.338,0.599,0.564,�k�k��,1.2,��
2022/11/19,04:30,0.588,0.849,0.534,1.079,0.751,0.340,0.598,0.564,�k��,1.9,��
2022/11/19,04:40,0.587,0.850,0.534,1.081,0.752,0.338,0.599,0.564,�k�k��,1.2,��
2022/11/19,04:50,0.586,0.850,0.534,1.079,0.752,0.340,0.599,0.563,�k�k��,1.5,��
2022/11/19,05:00,0.585,0.849,0.533,1.080,0.750,0.338,0.596,0.563,�k,1.1,��
2022/11/19,05:10,0.587,0.849,0.535,1.080,0.752,0.339,0.598,0.564,�k�k��,1.4,��
2022/11/19,05:20,0.584,0.849,0.534,1.078,0.752,0.338,0.598,0.563,�k,2.3,��
2022/11/19,05:30,0.585,0.851,0.535,1.082,0.751,0.338,0.598,0.564,�k�k��,1.5,��
2022/11/19,05:40,0.588,0.849,0.532,1.076,0.751,0.337,0.599,0.564,���k��,1.4,��
2022/11/19,05:50,0.584,0.850,0.534,1.079,0.750,0.339,0.598,0.562,���k��,2.2,��
2022/11/19,06:00,0.586,0.849,0.535,1.078,0.753,0.339,0.599,0.562,���k��,2.0,��
2022/11/19,06:10,0.584,0.850,0.534,1.079,0.751,0.338,0.597,0.562,���k��,1.9,��
2022/11/19,06:20,0.586,0.848,0.535,1.078,0.751,0.338,0.598,0.563,�k��,2.5,��
2022/11/19,06:30,0.586,0.850,0.534,1.078,0.752,0.338,0.597,0.563,�k��,3.3,��
2022/11/19,06:40,0.586,0.850,0.533,1.078,0.751,0.339,0.597,0.564,�k��,2.3,��
2022/11/19,06:50,0.584,0.849,0.533,1.081,0.751,0.337,0.597,0.562,�k��,2.5,��
2022/11/19,07:00,0.585,0.849,0.534,1.079,0.752,0.339,0.598,0.564,���k��,2.3,��
2022/11/19,07:10,0.584,0.847,0.532,1.081,0.752,0.338,0.597,0.564,���k��,1.9,��
2022/11/19,07:20,0.586,0.850,0.534,1.079,0.751,0.339,0.595,0.563,�k��,1.9,��
2022/11/19,07:30,0.586,0.853,0.535,1.081,0.753,0.335,0.598,0.563,�k��,3.0,��
2022/11/19,07:40,0.584,0.850,0.534,1.078,0.753,0.339,0.598,0.563,�k�k��,2.0,��
2022/11/19,07:50,0.585,0.851,0.533,1.079,0.750,0.338,0.598,0.563,�k�k��,2.8,��
2022/11/19,08:00,0.585,0.849,0.533,1.078,0.752,0.337,0.597,0.565,�k�k��,4.8,��
2022/11/19,08:10,0.585,0.850,0.535,1.079,0.752,0.338,0.597,0.563,�k�k��,6.3,��
2022/11/19,08:20,0.586,0.849,0.534,1.080,0.751,0.336,0.597,0.564,�k�k��,6.7,��
2022/11/19,08:30,0.588,0.852,0.533,1.081,0.753,0.339,0.598,0.561,�k�k��,5.5,��
2022/11/19,08:40,0.587,0.850,0.533,1.079,0.751,0.339,0.600,0.564,�k�k��,5.1,��
2022/11/19,08:50,0.587,0.851,0.533,1.078,0.751,0.338,0.598,0.565,�k�k��,5.1,��
2022/11/19,09:00,0.587,0.852,0.534,1.083,0.753,0.339,0.598,0.563,�k�k��,5.8,��
2022/11/19,09:10,0.587,0.850,0.534,1.081,0.753,0.339,0.597,0.565,�k�k��,5.3,��
2022/11/19,09:20,0.587,0.851,0.534,1.083,0.754,0.338,0.599,0.565,�k�k��,4.4,��
2022/11/19,09:30,0.589,0.852,0.534,1.081,0.753,0.338,0.599,0.564,�k�k��,4.6,��
2022/11/19,09:40,0.588,0.851,0.535,1.081,0.753,0.339,0.597,0.565,�k�k��,4.3,��
2022/11/19,09:50,0.588,0.855,0.535,1.080,0.754,0.339,0.597,0.564,�k�k��,3.2,��
2022/11/19,10:00,0.589,0.853,0.534,1.079,0.754,0.339,0.597,0.564,�k,3.9,��
2022/11/19,10:10,0.589,0.854,0.536,1.082,0.751,0.339,0.596,0.565,�k,3.6,��
2022/11/19,10:20,0.589,0.850,0.535,1.081,0.754,0.338,0.597,0.564,�k,4.0,��
2022/11/19,10:30,0.588,0.850,0.537,1.080,0.753,0.338,0.597,0.564,�k,4.2,��
2022/11/19,10:40,0.587,0.850,0.536,1.082,0.753,0.339,0.597,0.565,�k,3.8,��
2022/11/19,10:50,0.587,0.849,0.533,1.082,0.753,0.337,0.597,0.564,�k�k��,4.8,��
2022/11/19,11:00,0.589,0.850,0.534,1.083,0.753,0.337,0.598,0.566,�k�k��,5.2,��
2022/11/19,11:10,0.586,0.849,0.535,1.081,0.754,0.336,0.599,0.565,�k�k��,5.2,��
2022/11/19,11:20,0.586,0.848,0.534,1.084,0.752,0.338,0.597,0.565,�k�k��,5.2,��
2022/11/19,11:30,0.586,0.851,0.534,1.082,0.752,0.338,0.597,0.565,�k�k��,5.1,��
2022/11/19,11:40,0.588,0.851,0.534,1.079,0.751,0.338,0.599,0.563,�k�k��,4.5,��
2022/11/19,11:50,0.587,0.851,0.532,1.081,0.753,0.337,0.598,0.564,�k�k��,5.5,��
2022/11/19,12:00,0.587,0.853,0.534,1.081,0.750,0.339,0.597,0.564,�k�k��,5.2,��
2022/11/19,12:10,0.586,0.850,0.534,1.083,0.753,0.339,0.597,0.565,�k�k��,5.2,��
2022/11/19,12:20,0.587,0.850,0.534,1.082,0.752,0.339,0.598,0.566,�k�k��,4.8,��
2022/11/19,12:30,0.588,0.851,0.534,1.082,0.752,0.338,0.597,0.566,�k�k��,3.8,��
2022/11/19,12:40,0.587,0.852,0.533,1.082,0.753,0.340,0.596,0.562,�k�k��,4.6,��
2022/11/19,12:50,0.587,0.852,0.533,1.081,0.752,0.339,0.597,0.563,�k�k��,5.0,��
2022/11/19,13:00,0.589,0.851,0.532,1.083,0.751,0.340,0.599,0.563,�k�k��,4.8,��
2022/11/19,13:10,0.587,0.849,0.534,1.081,0.751,0.338,0.596,0.562,�k��,3.8,��
2022/11/19,13:20,0.588,0.852,0.534,1.079,0.751,0.339,0.599,0.563,�k�k��,4.4,��
2022/11/19,13:30,0.587,0.853,0.532,1.081,0.752,0.339,0.598,0.564,�k�k��,4.2,��
2022/11/19,13:40,0.589,0.851,0.533,1.082,0.753,0.337,0.598,0.561,�k�k��,4.7,��
2022/11/19,13:50,0.588,0.851,0.532,1.083,0.753,0.339,0.601,0.563,�k,5.1,��
2022/11/19,14:00,0.588,0.850,0.534,1.082,0.751,0.338,0.597,0.562,�k�k��,4.9,��
2022/11/19,14:10,0.587,0.851,0.532,1.082,0.752,0.340,0.599,0.563,�k�k��,4.5,��
2022/11/19,14:20,0.588,0.850,0.534,1.082,0.754,0.339,0.600,0.564,�k�k��,4.0,��
2022/11/19,14:30,0.589,0.851,0.534,1.082,0.753,0.338,0.598,0.563,�k,5.1,��
2022/11/19,14:40,0.588,0.849,0.534,1.080,0.753,0.338,0.600,0.562,�k,4.2,��
2022/11/19,14:50,0.590,0.853,0.534,1.083,0.753,0.341,0.601,0.563,�k�k��,4.6,��
2022/11/19,15:00,0.588,0.857,0.534,1.083,0.754,0.338,0.599,0.564,�k�k��,4.6,��
2022/11/19,15:10,0.586,0.855,0.532,1.085,0.755,0.340,0.600,0.563,�k�k��,3.9,��
2022/11/19,15:20,0.587,0.855,0.534,1.082,0.753,0.340,0.599,0.566,�k,3.6,��
2022/11/19,15:30,0.589,0.856,0.533,1.081,0.753,0.339,0.600,0.565,�k�k��,2.9,��
2022/11/19,15:40,0.587,0.856,0.534,1.082,0.752,0.338,0.600,0.566,�k,2.6,��
2022/11/19,15:50,0.588,0.854,0.534,1.082,0.753,0.340,0.600,0.566,�k,3.4,��
2022/11/19,16:00,0.586,0.854,0.534,1.084,0.753,0.338,0.601,0.566,�k,3.4,��
2022/11/19,16:10,0.588,0.853,0.534,1.083,0.751,0.340,0.601,0.566,�k,4.4,��
2022/11/19,16:20,0.588,0.854,0.536,1.080,0.753,0.339,0.600,0.564,�k,3.5,��
2022/11/19,16:30,0.587,0.856,0.535,1.081,0.754,0.339,0.601,0.566,�k�k��,3.5,��
2022/11/19,16:40,0.592,0.854,0.535,1.081,0.755,0.339,0.602,0.563,�k��,2.3,��
2022/11/19,16:50,0.590,0.854,0.534,1.082,0.757,0.339,0.600,0.564,�k��,2.6,��
2022/11/19,17:00,0.588,0.853,0.537,1.083,0.753,0.337,0.599,0.566,�k��,3.3,��
2022/11/19,17:10,0.589,0.853,0.535,1.082,0.756,0.339,0.601,0.564,�k��,2.8,��
2022/11/19,17:20,0.588,0.855,0.534,1.082,0.753,0.338,0.600,0.564,�k��,3.3,��
2022/11/19,17:30,0.588,0.855,0.535,1.081,0.755,0.339,0.599,0.565,�k��,3.3,��
2022/11/19,17:40,0.589,0.853,0.536,1.082,0.753,0.339,0.600,0.563,�k�k��,3.5,��
2022/11/19,17:50,0.588,0.855,0.534,1.081,0.752,0.339,0.600,0.565,�k�k��,3.6,��
2022/11/19,18:00,0.589,0.853,0.535,1.082,0.755,0.339,0.601,0.565,�k�k��,4.4,��
2022/11/19,18:10,0.589,0.854,0.537,1.081,0.752,0.339,0.600,0.563,�k��,4.4,��
2022/11/19,18:20,0.588,0.854,0.535,1.080,0.754,0.339,0.600,0.566,�k��,4.4,��
2022/11/19,18:30,0.589,0.852,0.535,1.082,0.754,0.339,0.599,0.564,�k��,4.6,��
2022/11/19,18:40,0.589,0.855,0.537,1.085,0.756,0.339,0.599,0.564,�k��,5.4,��
2022/11/19,18:50,0.587,0.854,0.536,1.081,0.754,0.339,0.599,0.563,�k�k��,4.7,��
2022/11/19,19:00,0.588,0.855,0.535,1.084,0.752,0.339,0.600,0.566,�k�k��,5.4,��
2022/11/19,19:10,0.588,0.854,0.536,1.083,0.754,0.340,0.600,0.563,�k�k��,5.1,��
2022/11/19,19:20,0.590,0.855,0.536,1.082,0.755,0.339,0.600,0.564,�k�k��,5.7,��
2022/11/19,19:30,0.588,0.854,0.535,1.084,0.754,0.337,0.599,0.563,�k�k��,6.2,��
2022/11/19,19:40,0.589,0.852,0.535,1.081,0.755,0.339,0.599,0.564,�k�k��,6.2,��
2022/11/19,19:50,0.588,0.852,0.533,1.083,0.755,0.338,0.600,0.565,�k�k��,6.0,��
2022/11/19,20:00,0.588,0.855,0.533,1.082,0.752,0.338,0.601,0.565,�k��,5.8,��
2022/11/19,20:10,0.590,0.855,0.535,1.080,0.754,0.338,0.599,0.564,�k��,6.2,��
2022/11/19,20:20,0.587,0.856,0.534,1.084,0.753,0.339,0.600,0.564,�k��,6.5,��
2022/11/19,20:30,0.589,0.854,0.536,1.082,0.754,0.340,0.600,0.564,�k�k��,6.1,��
2022/11/19,20:40,0.590,0.852,0.535,1.083,0.754,0.339,0.599,0.565,�k��,5.9,��
2022/11/19,20:50,0.588,0.851,0.533,1.081,0.754,0.340,0.601,0.563,�k��,6.2,��
2022/11/19,21:00,0.587,0.853,0.535,1.082,0.755,0.338,0.599,0.563,�k��,6.4,��
2022/11/19,21:10,0.587,0.853,0.534,1.082,0.755,0.337,0.600,0.565,�k��,6.3,��
2022/11/19,21:20,0.588,0.852,0.534,1.082,0.753,0.339,0.599,0.564,�k�k��,6.6,��
2022/11/19,21:30,0.589,0.855,0.535,1.085,0.753,0.338,0.598,0.563,�k��,6.0,��
2022/11/19,21:40,0.588,0.853,0.534,1.081,0.753,0.339,0.599,0.565,�k��,6.2,��
2022/11/19,21:50,0.589,0.853,0.535,1.081,0.754,0.339,0.600,0.562,�k�k��,6.6,��
2022/11/19,22:00,0.588,0.854,0.536,1.083,0.754,0.340,0.599,0.565,�k��,6.6,��
2022/11/19,22:10,0.587,0.852,0.536,1.082,0.755,0.338,0.599,0.566,�k��,6.7,��
2022/11/19,22:20,0.590,0.855,0.534,1.082,0.755,0.339,0.599,0.562,�k��,6.9,��
2022/11/19,22:30,0.590,0.853,0.535,1.086,0.755,0.339,0.601,0.563,�k��,7.7,��
2022/11/19,22:40,0.588,0.852,0.536,1.081,0.753,0.339,0.599,0.564,�k�k��,7.2,��
2022/11/19,22:50,0.588,0.853,0.535,1.083,0.753,0.339,0.598,0.566,�k��,6.6,��
2022/11/19,23:00,0.587,0.854,0.534,1.083,0.753,0.339,0.601,0.564,�k��,6.7,��
2022/11/19,23:10,0.587,0.854,0.535,1.081,0.753,0.338,0.600,0.564,�k��,7.4,��
2022/11/19,23:20,0.588,0.853,0.536,1.083,0.754,0.338,0.600,0.564,�k�k��,7.1,��
2022/11/19,23:30,0.588,0.854,0.534,1.082,0.751,0.339,0.598,0.563,�k��,6.4,��
2022/11/19,23:40,0.589,0.853,0.536,1.083,0.754,0.338,0.599,0.564,�k��,7.0,��
2022/11/19,23:50,0.587,0.853,0.536,1.080,0.755,0.338,0.599,0.564,�k��,7.3,��
